SCP
27 32 20 3 3 3 3 4 4 5 5 5 4 4 3 3 3 3 2 2 2 2 2 2 1 1 1 1 1 1 1 1 0 0 0 0 0 0 0 0 0 0 0
31 44 24 3 3 3 3 4 4 5 6 5 4 4 4 3 3 3 2 2 2 2 2 2 2 2 1 1 1 1 1 1 1 1 0 0 0 0 0 0 0 0 0
20 24 16 4 3 3 3 3 4 5 6 5 5 5 5 4 4 3 3 2 2 2 2 2 2 2 2 2 1 1 1 1 1 1 1 0 0 0 0 0 0 0 1
5 5 6 6 4 3 3 3 4 5 6 6 6 6 6 5 4 3 3 3 3 3 2 2 2 2 2 2 2 1 1 1 1 1 1 0 0 0 0 0 0 1 1
5 6 8 8 7 6 5 4 4 5 6 6 6 6 6 5 4 3 3 3 3 2 2 2 2 2 2 2 2 2 2 2 2 2 1 1 0 0 0 0 0 0 1
5 7 10 11 10 8 7 5 4 5 6 5 5 5 4 4 4 3 3 2 2 2 2 2 2 2 2 2 2 2 2 2 2 2 1 1 0 0 0 0 0 0 0
7 9 12 13 11 9 6 5 5 5 5 5 4 4 3 3 3 3 3 2 2 2 1 1 1 2 2 2 2 2 2 2 2 2 1 1 1 1 1 0 0 0 0
7 9 10 10 9 7 5 5 4 4 4 4 4 3 3 3 3 3 3 2 2 2 1 1 1 1 1 1 2 2 2 2 2 1 1 1 1 1 1 1 0 0 0
6 6 6 5 5 5 5 4 4 3 3 3 4 3 3 3 3 3 3 3 2 2 1 1 1 1 1 1 1 1 1 1 1 1 1 1 1 1 0 0 0 0 0
4 4 3 3 3 4 5 4 3 3 3 3 4 4 3 3 3 3 3 2 2 2 2 1 1 1 1 1 1 1 1 1 1 1 1 1 1 1 0 0 0 0 0
3 3 3 3 3 3 4 3 2 2 2 3 4 4 4 4 4 3 3 3 2 2 2 2 1 1 1 1 1 1 1 1 1 1 1 1 1 1 0 0 0 0 0
2 2 2 2 2 2 2 2 2 2 2 3 3 4 4 4 4 3 3 3 3 2 2 2 2 2 1 1 1 1 1 1 1 1 1 1 1 1 1 0 0 0 0
1 1 1 1 1 1 2 2 2 2 2 3 3 3 3 4 4 3 4 4 3 3 2 2 2 2 2 1 1 1 1 1 1 1 1 1 1 1 1 1 0 0 0
1 1 1 1 1 1 2 2 2 2 2 3 3 3 3 3 3 3 4 5 5 4 3 2 2 2 2 2 1 1 1 1 1 1 1 1 1 1 1 1 1 1 0
1 1 1 1 1 1 2 3 3 3 3 3 3 2 2 2 2 3 4 5 6 5 4 3 3 2 2 2 1 1 1 1 1 1 1 1 1 1 1 1 1 1 1
1 1 1 1 1 2 2 3 4 3 3 3 3 3 2 2 2 2 3 4 5 6 5 4 3 3 2 1 1 1 1 1 1 1 1 1 1 1 1 1 1 1 1
1 1 1 1 2 3 4 5 5 4 4 4 3 3 2 2 2 2 2 3 4 5 6 5 4 3 2 1 0 1 1 1 1 1 1 1 1 1 1 0 0 0 0
1 1 2 2 4 5 6 6 6 5 3 3 3 2 2 1 2 2 2 2 3 4 5 6 5 4 2 1 0 0 1 1 1 1 1 1 1 1 0 0 0 0 0
1 2 4 5 6 7 7 7 6 4 3 2 2 1 1 1 1 2 2 2 2 2 4 5 5 4 2 1 0 0 0 1 1 1 1 0 0 0 0 0 0 0 0
2 3 5 6 7 7 6 5 4 3 2 1 1 1 0 0 1 1 2 1 1 1 2 4 4 3 2 1 0 0 0 1 1 0 0 0 0 0 0 0 0 0 0
2 2 3 4 4 4 4 3 3 2 1 1 0 0 0 0 1 1 1 1 0 1 1 2 2 1 1 0 0 0 0 0 0 0 0 0 0 0 0 0 0 0 0
1 1 1 2 2 2 2 2 2 1 1 1 1 0 0 0 1 1 1 0 0 0 1 1 0 0 0 0 0 0 0 0 0 0 0 0 0 0 0 0 0 0 0
0 0 0 1 1 1 1 1 1 1 1 1 1 0 0 0 0 1 0 0 0 0 0 0 0 0 0 0 0 0 0 0 0 0 0 0 0 0 0 0 0 0 0
0 0 1 0 0 0 0 0 0 0 1 1 1 0 0 0 0 0 0 0 0 0 0 0 0 0 0 0 0 0 0 0 0 0 0 0 0 0 0 0 0 0 0
1 1 1 1 1 0 0 0 0 0 0 1 1 1 0 0 0 0 0 0 0 0 0 0 0 0 0 0 0 0 0 0 0 0 0 0 0 0 0 0 0 0 0
1 1 1 1 1 0 0 1 1 0 0 1 1 1 1 0 0 0 0 0 0 0 0 0 0 0 0 0 0 0 0 0 0 0 0 0 0 0 0 0 0 0 0
Wind_Speed
4 4 5 6 6 6 6 6 6 5 4 3 3 2 2 2 1 1 2 3 3 3 3 2 2 2 3 3 3 2 2 1 2 2 1 2 1 0 1 1 2 2 3
3 4 5 5 7 7 6 5 5 5 5 3 3 2 2 1 1 1 1 2 3 3 4 4 3 3 2 3 3 2 2 1 2 2 2 1 2 1 0 1 2 3 2
6 5 5 6 6 6 7 6 6 5 4 3 2 2 2 1 1 0 1 1 2 3 3 3 3 3 3 3 3 4 4 3 1 2 3 3 2 1 1 1 1 2 2
4 4 5 6 6 6 6 5 5 4 4 4 4 4 3 2 2 2 1 1 1 2 2 3 3 3 3 3 3 4 3 3 3 2 1 2 3 3 0 1 1 1 2
6 6 6 6 6 5 5 5 4 4 3 4 4 4 2 2 1 1 1 1 0 1 2 2 3 3 3 3 3 3 3 3 3 3 2 2 1 2 2 1 1 1 2
5 5 5 4 4 4 4 4 4 4 3 4 4 4 4 2 2 1 2 1 1 0 1 2 2 3 2 3 3 3 4 3 3 3 3 3 3 3 3 3 2 1 2
4 5 5 5 5 5 5 5 5 4 3 4 3 3 4 4 3 3 2 2 1 1 2 2 2 2 3 3 3 3 3 4 4 4 3 3 3 2 3 3 2 1 1
3 4 5 6 6 6 6 5 5 4 4 4 4 3 3 3 2 3 2 3 2 2 2 2 2 2 3 3 3 2 3 3 3 4 3 3 3 3 3 3 3 2 1
4 4 4 5 5 5 5 6 6 5 4 4 3 3 3 3 3 3 2 2 2 2 2 2 2 2 2 3 3 2 3 3 3 3 3 2 2 2 2 2 3 3 3
2 3 3 4 4 5 4 4 4 4 4 4 4 3 3 3 2 2 3 2 2 2 2 2 2 2 2 3 3 2 2 3 2 2 3 3 2 2 2 2 2 3 3
3 3 3 3 3 3 4 4 3 3 3 3 3 3 3 2 2 3 3 3 3 2 2 2 2 2 2 2 3 3 3 3 2 2 3 3 2 2 2 2 2 2 2
2 2 3 3 3 3 3 4 4 3 3 3 2 2 2 2 2 2 2 3 2 2 2 2 2 2 2 2 3 3 3 3 3 3 3 3 3 3 3 3 3 3 3
2 3 3 3 3 3 3 3 4 4 3 3 3 2 2 2 2 2 2 2 2 2 2 2 2 1 1 2 3 3 3 3 3 3 3 3 3 3 3 3 3 2 2
2 3 3 3 3 3 3 3 3 3 4 3 3 3 2 2 2 2 2 2 2 2 1 1 1 1 1 2 2 2 3 3 2 3 3 4 4 4 4 4 4 3 3
0 2 3 3 3 3 3 3 3 3 3 4 3 3 2 2 2 2 1 1 1 1 1 1 1 1 1 1 2 2 3 2 2 2 3 3 4 5 4 3 3 4 3
1 1 2 3 3 3 3 3 3 3 3 3 3 2 2 2 2 2 1 1 1 1 1 1 1 1 1 1 1 2 2 2 2 2 2 2 3 4 4 4 4 5 4
1 1 2 3 4 4 3 4 3 3 3 3 2 2 3 2 2 2 2 1 1 1 1 1 1 1 1 1 1 2 2 2 2 3 2 2 2 2 3 3 3 3 4
2 1 2 2 2 1 2 2 3 3 3 2 2 2 2 2 2 2 2 2 1 2 2 2 1 1 1 1 1 1 1 1 2 2 3 3 2 3 2 2 2 3 3
2 1 1 1 1 1 2 3 3 2 2 2 2 2 2 2 3 3 2 2 2 1 2 2 2 2 2 1 1 1 1 1 1 2 2 2 3 3 3 2 3 3 3
2 1 1 1 2 1 3 3 3 2 2 2 2 1 2 2 3 3 2 1 2 2 2 2 2 2 2 2 1 1 1 1 1 1 1 2 2 3 3 3 3 3 3
3 3 2 2 1 2 4 3 2 1 1 1 1 1 1 2 2 2 2 1 1 1 1 1 0 0 1 1 1 2 2 2 2 1 1 1 2 3 4 4 3 5 3
4 3 3 1 1 2 4 3 1 1 0 1 2 1 1 1 1 2 1 1 1 2 1 1 0 1 1 1 1 2 2 2 2 2 2 2 2 3 4 3 4 4 3
4 3 2 2 2 1 2 2 1 0 1 2 1 1 1 1 1 2 2 1 1 1 1 1 1 1 1 1 1 1 2 2 1 2 2 2 2 2 2 4 4 3 2
3 3 4 3 3 2 1 1 0 1 2 2 1 1 2 1 1 1 1 1 1 1 1 1 1 1 1 1 1 1 1 1 1 1 1 2 2 1 2 2 2 2 3
3 3 3 3 2 2 2 1 1 2 2 1 1 1 1 1 1 1 1 1 1 2 2 2 2 1 1 2 2 1 1 1 1 0 0 1 1 1 2 2 2 2 2
2 2 2 2 2 3 3 2 1 2 2 1 1 1 1 1 1 1 1 2 1 1 1 1 2 1 2 3 2 2 2 1 2 2 1 1 2 2 3 3 3 3 3
Wind_Direction
193 160 157 156 149 148 150 157 153 152 149 154 163 162 176 188 196 198 186 180 179 173 168 171 154 153 159 165 160 146 135 127 126 105 64 26 44 158 212 209 197 199 201
168 164 158 162 164 164 164 162 162 162 165 171 173 164 157 174 185 194 174 185 177 173 177 168 166 167 161 155 156 150 145 145 143 136 118 40 1 346 260 221 214 217 205
191 183 172 176 167 168 173 173 172 166 163 150 131 112 84 66 82 149 215 210 188 180 175 172 168 171 171 177 180 172 167 171 171 151 147 153 203 267 326 264 226 213 206
184 187 183 178 178 180 170 164 163 160 154 145 146 148 155 173 202 205 203 206 188 179 173 173 171 174 180 183 191 178 177 167 177 176 165 156 157 158 206 315 256 223 215
184 187 189 185 180 169 162 159 152 150 149 152 154 155 161 181 173 149 141 153 194 186 172 172 175 180 188 192 192 175 176 178 177 173 161 147 123 137 160 217 261 270 241
186 181 174 164 159 149 150 150 150 155 155 158 160 165 170 167 150 161 171 170 171 194 174 175 189 194 197 198 198 189 182 186 180 174 167 167 165 174 170 193 212 242 266
172 172 167 164 162 162 165 160 157 164 167 164 170 178 180 178 182 186 187 178 179 204 213 191 197 200 203 199 189 188 190 186 184 185 186 189 191 168 163 170 188 217 274
167 170 171 171 173 171 169 166 170 175 176 175 183 182 178 182 195 194 188 189 199 213 205 199 198 200 197 190 178 182 192 185 192 194 188 187 192 181 175 172 168 187 248
172 174 172 169 168 167 174 176 177 176 181 184 181 179 182 185 193 194 188 189 196 197 185 189 197 202 195 186 174 180 189 184 197 201 194 191 193 187 194 185 177 180 216
172 172 170 171 166 166 166 162 169 177 180 179 180 178 188 194 191 179 186 192 195 188 174 175 183 192 192 184 179 183 188 187 204 200 193 197 193 188 189 190 195 195 199
194 181 176 165 149 140 151 155 165 162 166 176 174 169 184 189 186 195 200 195 190 183 182 187 189 194 199 192 184 191 187 191 202 198 193 206 197 196 194 186 185 196 193
171 162 158 145 137 144 153 163 169 173 179 177 170 176 175 171 181 201 196 181 180 184 185 185 182 188 196 190 187 192 188 191 198 202 198 212 200 202 198 193 197 202 201
151 148 150 158 162 164 167 175 179 180 176 166 165 162 156 172 183 179 163 159 162 168 173 177 183 196 205 202 201 193 193 198 200 198 202 212 197 203 203 200 199 204 205
153 162 172 179 179 175 177 183 185 178 169 166 168 172 177 180 172 159 149 152 153 152 163 183 197 202 201 201 196 192 192 201 209 209 209 212 205 208 205 203 201 196 193
103 186 185 178 178 176 177 181 177 171 165 162 172 188 179 161 145 140 144 145 153 165 166 160 178 166 178 197 182 186 193 201 215 221 219 219 219 217 208 206 198 190 193
319 236 207 180 186 189 184 175 167 169 163 165 177 173 154 156 160 158 148 145 159 166 159 166 169 169 220 256 182 177 187 197 202 222 239 241 225 219 216 218 204 192 197
274 226 214 206 203 199 188 177 168 157 160 168 170 167 163 169 170 164 147 162 184 178 175 181 181 208 245 217 199 198 180 196 209 216 220 234 235 215 218 226 227 228 226
269 251 230 218 215 195 165 155 149 155 160 166 171 168 166 175 170 167 180 193 187 189 194 195 200 211 245 217 214 223 189 206 224 224 220 221 231 223 211 217 227 242 244
270 267 245 198 155 165 155 136 136 140 146 165 178 176 170 174 178 186 202 202 181 190 202 198 199 211 254 245 240 210 194 222 250 251 237 225 229 227 203 202 225 249 265
12 23 52 100 120 138 130 129 137 142 171 186 187 179 166 164 179 189 192 196 192 197 204 206 205 212 244 253 231 198 185 210 254 284 269 237 232 228 206 203 215 241 260
31 42 71 100 123 120 119 119 124 185 208 165 147 149 163 175 178 174 168 174 177 169 174 175 252 247 258 253 230 205 191 205 222 243 266 263 248 244 228 221 227 237 243
33 40 55 57 61 113 125 128 184 226 158 125 130 133 143 165 149 148 141 138 145 145 150 145 333 313 275 239 247 219 204 201 206 238 255 260 257 259 249 238 237 236 232
28 30 49 58 40 70 122 136 247 99 110 108 117 127 124 104 114 142 147 141 141 141 161 176 228 300 315 299 288 255 233 223 220 244 253 269 273 280 273 251 245 236 219
22 26 44 50 31 23 64 141 164 107 101 118 129 119 112 90 78 100 138 153 165 172 187 194 246 287 315 323 339 319 283 259 260 277 293 303 299 287 272 276 256 235 224
20 32 43 43 15 4 26 25 61 100 103 107 126 119 119 128 110 89 112 165 212 195 199 220 218 221 265 274 262 237 250 236 225 192 353 336 322 309 303 296 281 262 239
19 24 28 32 12 8 6 6 40 112 132 143 122 119 122 133 136 120 51 35 53 47 136 198 207 241 252 281 284 269 265 234 171 141 210 268 275 279 285 285 282 270 259